Total_Precipitation_Accumulation
0.06 0.16 0.41 0.67 1.39 1.52 1.10 0.61 0.45 0.37 0.38 0.42 0.48 0.47 0.49 0.60 0.81 1.44 1.21 0.85 0.71 0.84 1.12 1.68 1.90 1.80 1.76 1.79 1.72 1.77 1.79 1.76 1.92 1.95 1.92 1.80 1.73 1.93 2.02 2.06 2.01 2.15 2.12 1.85 1.74 1.53 1.36 1.36 1.38
0.12 0.24 0.52 0.96 1.47 1.24 0.95 0.49 0.36 0.34 0.31 0.42 0.48 0.40 0.35 0.41 0.33 0.43 0.68 0.78 0.70 0.76 0.88 1.22 1.59 1.60 1.54 1.53 1.56 1.59 1.56 1.55 1.71 1.75 1.76 1.75 1.71 1.92 2.08 2.03 1.98 2.16 2.00 1.83 1.66 1.53 1.33 1.22 1.24
0.19 0.33 0.67 1.14 0.89 0.65 0.59 0.34 0.31 0.36 0.44 0.62 0.72 0.49 0.41 0.55 0.41 0.40 0.47 0.52 0.58 0.65 0.71 1.00 1.31 1.37 1.40 1.42 1.54 1.51 1.37 1.39 1.57 1.66 1.68 1.71 1.78 1.92 2.07 2.00 2.00 2.14 2.14 1.95 1.72 1.56 1.34 1.26 1.21
0.24 0.42 0.70 0.76 0.37 0.26 0.32 0.24 0.30 0.40 0.68 0.80 0.83 0.69 0.55 0.53 0.41 0.38 0.36 0.44 0.55 0.64 0.70 0.87 1.13 1.18 1.27 1.32 1.50 1.46 1.37 1.36 1.47 1.59 1.59 1.63 1.72 1.97 2.11 2.04 2.06 2.08 2.03 1.84 1.66 1.48 1.29 1.20 1.18
0.25 0.52 0.81 0.51 0.17 0.14 0.16 0.14 0.21 0.34 0.59 0.80 0.82 0.91 0.89 0.77 0.56 0.43 0.38 0.46 0.58 0.63 0.71 0.74 1.01 1.11 1.26 1.40 1.52 1.47 1.36 1.28 1.34 1.42 1.41 1.54 1.79 2.04 2.17 2.18 2.14 2.06 1.98 1.73 1.53 1.38 1.24 1.17 1.21
0.30 0.55 0.59 0.32 0.16 0.11 0.12 0.13 0.22 0.41 0.63 0.79 0.95 1.07 0.99 0.81 0.59 0.48 0.42 0.50 0.63 0.60 0.73 0.81 0.99 1.05 1.15 1.33 1.55 1.60 1.41 1.31 1.36 1.48 1.47 1.56 1.81 2.05 2.18 2.29 2.32 2.15 1.99 1.68 1.49 1.28 1.15 1.14 1.22
0.23 0.38 0.35 0.22 0.16 0.12 0.11 0.17 0.27 0.41 0.53 0.82 1.10 1.16 0.97 0.90 0.72 0.53 0.56 0.57 0.92 0.70 0.72 0.84 0.91 1.04 1.12 1.29 1.56 1.63 1.56 1.45 1.53 1.68 1.59 1.65 1.84 2.05 2.16 2.29 2.33 2.16 2.00 1.71 1.47 1.23 1.08 1.11 1.16
0.17 0.24 0.22 0.17 0.09 0.08 0.10 0.17 0.27 0.39 0.66 0.93 0.96 1.04 1.08 0.83 0.76 0.75 0.82 0.82 1.03 0.96 0.82 0.85 0.86 1.07 1.21 1.25 1.43 1.65 1.60 1.53 1.58 1.68 1.70 1.95 2.08 2.13 2.18 2.33 2.37 2.20 1.99 1.67 1.51 1.29 1.12 1.11 1.12
0.14 0.24 0.22 0.14 0.06 0.07 0.13 0.21 0.28 0.34 0.55 0.73 0.81 0.78 0.61 0.60 0.77 0.90 1.02 1.12 1.21 1.21 1.15 1.12 1.02 1.02 1.18 1.21 1.33 1.76 1.81 1.77 1.78 1.84 2.09 2.40 2.70 2.69 2.73 2.64 2.60 2.46 2.16 1.93 1.77 1.59 1.35 1.25 1.16
0.09 0.17 0.12 0.05 0.03 0.06 0.11 0.20 0.32 0.42 0.71 1.06 1.09 1.12 0.79 0.81 0.99 1.07 1.09 1.10 1.29 1.45 1.42 1.55 1.34 1.13 1.11 1.12 1.64 2.28 2.24 2.23 2.33 2.46 2.58 2.93 3.15 3.39 2.93 3.14 3.17 3.08 2.87 2.56 2.40 2.31 1.86 1.41 1.20
0.04 0.05 0.03 0.03 0.02 0.03 0.05 0.11 0.16 0.36 0.78 1.22 1.27 1.24 1.03 1.02 1.14 1.27 1.33 1.46 1.62 1.82 1.64 1.54 1.60 1.55 1.55 1.66 1.80 2.10 2.51 2.69 2.77 2.78 2.78 3.04 2.95 3.05 3.02 3.34 3.75 3.67 3.13 2.68 2.76 2.72 2.13 1.91 2.07
0.03 0.02 0.02 0.02 0.02 0.03 0.05 0.12 0.22 0.37 0.80 1.08 0.98 0.86 0.90 1.11 1.31 1.49 1.85 2.08 2.28 2.43 2.38 2.38 2.26 2.20 2.21 2.07 1.91 1.95 2.18 2.28 2.34 2.44 2.50 2.71 3.03 3.11 3.24 3.52 3.47 3.36 3.08 3.13 2.92 2.96 2.68 2.43 2.23
0.02 0.02 0.03 0.02 0.02 0.03 0.07 0.17 0.30 0.42 0.70 0.68 0.59 0.66 1.06 1.32 1.56 1.88 2.11 2.33 2.57 2.94 3.20 3.74 3.65 3.11 2.79 2.53 2.25 1.91 2.05 1.93 1.74 1.93 2.26 2.40 2.62 2.92 3.09 2.97 2.96 2.63 2.64 2.85 2.92 2.61 2.75 2.65 2.60
0.02 0.02 0.04 0.05 0.04 0.06 0.10 0.16 0.39 0.49 0.59 0.67 0.64 0.93 1.39 1.87 2.07 2.33 2.62 3.02 3.34 3.79 3.84 4.05 4.60 3.97 3.28 2.78 2.47 2.22 2.03 2.07 1.89 2.00 1.98 2.22 2.42 2.51 2.59 2.53 2.61 2.44 2.46 2.54 2.52 2.48 2.76 2.82 2.72
0.02 0.05 0.13 0.12 0.09 0.09 0.15 0.34 0.52 0.63 0.65 0.87 0.93 1.15 1.69 2.33 2.34 2.63 2.94 3.42 3.89 4.36 4.50 4.60 4.93 4.63 4.12 3.58 3.01 2.54 2.34 2.16 2.13 2.18 1.93 1.98 2.15 2.20 2.29 2.32 2.30 2.34 2.26 2.24 2.18 2.23 2.44 2.41 2.36
0.04 0.12 0.27 0.23 0.12 0.13 0.22 0.70 0.83 0.70 0.68 0.97 1.19 1.40 1.87 2.52 2.58 2.89 3.35 3.89 4.59 5.03 5.27 5.31 5.09 5.09 4.73 4.10 3.53 3.12 2.87 2.58 2.32 2.13 1.96 1.78 1.88 1.94 2.08 2.00 1.99 2.00 1.94 1.92 2.07 2.10 2.24 2.36 2.41
0.09 0.15 0.26 0.26 0.19 0.16 0.25 0.73 0.76 0.51 0.67 0.95 1.25 1.55 1.85 2.19 2.67 3.25 3.74 4.32 5.25 6.20 6.64 6.42 5.79 5.39 4.93 4.37 3.89 3.73 3.55 3.12 2.62 2.38 2.19 2.02 1.84 1.81 1.93 2.00 2.05 1.76 1.78 1.83 1.72 2.01 2.15 2.39 2.44
0.06 0.11 0.21 0.30 0.23 0.27 0.36 0.47 0.60 0.64 0.82 1.02 1.23 1.41 1.69 2.00 2.40 3.09 3.67 4.36 5.33 6.53 7.25 7.15 6.51 5.71 5.04 4.69 4.27 4.11 3.79 3.31 2.74 2.48 2.39 2.12 2.00 1.80 1.86 1.78 1.72 1.53 1.69 1.90 2.00 2.40 2.31 2.21 2.22
0.05 0.09 0.17 0.26 0.22 0.31 0.39 0.49 0.64 0.80 1.02 1.04 1.13 1.24 1.48 1.79 2.18 2.84 3.53 4.10 4.78 5.55 6.14 6.02 5.42 4.97 4.47 4.00 3.46 3.39 3.19 2.88 2.58 2.30 2.04 2.01 1.96 1.81 1.89 1.80 1.92 1.65 1.69 1.75 1.72 1.96 2.08 1.98 1.97
0.06 0.09 0.15 0.21 0.18 0.19 0.32 0.59 0.74 0.82 0.98 0.93 0.94 1.00 1.20 1.55 2.17 2.93 3.53 3.76 3.80 4.06 4.32 3.81 3.61 3.63 3.34 3.12 3.04 2.95 2.79 2.48 2.25 2.09 2.07 1.72 1.72 1.70 1.63 1.88 1.78 1.70 1.85 1.84 1.82 1.97 2.07 2.00 2.05
0.09 0.11 0.12 0.19 0.20 0.25 0.40 0.76 0.97 0.89 0.89 0.78 0.74 0.96 1.43 1.86 2.29 2.80 2.98 3.00 2.91 2.87 2.85 2.62 2.55 2.88 2.90 2.91 2.91 2.85 2.81 2.65 2.39 2.08 2.05 1.70 1.55 1.57 1.67 1.69 1.80 1.87 1.60 1.82 1.94 1.90 1.97 2.04 1.97
0.08 0.07 0.05 0.08 0.15 0.37 0.55 0.99 1.17 1.09 1.04 0.78 0.81 1.18 1.69 2.01 2.27 2.25 1.84 1.72 1.86 1.95 2.07 2.33 2.41 2.55 2.50 2.62 2.54 2.38 2.15 2.01 1.91 1.85 1.91 1.90 1.68 1.56 1.48 1.56 1.81 1.92 1.69 1.90 1.55 1.66 1.93 2.05 1.91
0.05 0.05 0.04 0.07 0.17 0.42 0.71 1.14 1.36 1.17 1.00 0.77 0.75 0.82 1.20 1.37 1.32 1.15 0.98 1.02 1.26 1.53 1.78 2.19 2.29 2.33 2.27 2.25 2.31 2.42 2.30 2.24 2.08 2.01 2.19 2.16 2.13 1.91 1.57 1.57 1.79 1.93 1.88 1.93 1.80 2.02 1.85 1.77 1.75
0.05 0.06 0.12 0.22 0.40 0.87 0.94 1.03 1.31 1.15 0.95 0.81 0.67 0.60 0.81 0.84 0.69 0.72 0.78 0.96 1.21 1.39 1.50 1.76 1.92 2.09 2.15 2.20 2.30 2.28 2.29 2.40 2.22 2.08 2.01 1.95 2.00 1.96 1.83 1.79 1.99 1.98 1.93 1.98 1.92 1.96 1.84 1.82 1.83
0.04 0.07 0.28 0.63 0.93 1.08 0.81 0.95 1.26 0.92 0.68 0.58 0.46 0.38 0.41 0.49 0.57 0.72 0.80 0.98 1.08 1.19 1.23 1.38 1.48 1.67 1.86 1.98 2.07 2.12 2.20 2.30 2.18 2.08 1.96 1.89 1.77 1.73 1.84 1.93 2.12 2.02 1.97 1.90 1.96 1.95 1.92 1.95 2.01
0.05 0.05 0.13 0.25 0.38 0.59 0.76 1.16 1.25 0.87 0.55 0.40 0.35 0.33 0.32 0.40 0.46 0.51 0.61 0.66 0.77 0.92 1.16 1.35 1.34 1.35 1.42 1.49 1.67 1.84 1.89 1.96 1.96 2.09 1.91 1.78 1.66 1.64 1.79 1.89 1.83 1.82 1.84 1.72 1.94 1.85 1.81 1.88 1.92
0.05 0.04 0.05 0.07 0.11 0.37 0.81 1.08 1.02 0.69 0.51 0.42 0.42 0.44 0.43 0.44 0.50 0.44 0.45 0.57 0.65 0.70 0.83 1.05 1.13 1.15 1.20 1.26 1.39 1.47 1.53 1.67 1.87 1.85 1.68 1.54 1.59 1.61 1.63 1.61 1.65 1.69 1.72 1.82 1.99 1.89 1.87 2.00 1.86
0.05 0.05 0.05 0.07 0.13 0.28 0.64 1.14 1.35 0.99 0.70 0.55 0.59 0.55 0.49 0.44 0.45 0.51 0.52 0.56 0.62 0.63 0.75 0.92 1.08 1.15 1.17 1.18 1.22 1.17 1.32 1.45 1.61 1.65 1.60 1.51 1.44 1.57 1.66 1.62 1.64 1.66 1.62 1.69 1.88 1.79 1.90 2.00 1.95
0.06 0.06 0.07 0.09 0.10 0.18 0.47 0.77 0.82 0.86 0.69 0.51 0.55 0.56 0.51 0.44 0.45 0.56 0.55 0.56 0.52 0.52 0.62 0.76 0.96 1.07 1.02 1.06 1.10 1.18 1.27 1.45 1.51 1.48 1.51 1.50 1.49 1.58 1.64 1.70 1.77 1.72 1.69 1.76 1.85 1.75 1.89 1.93 2.04
0.08 0.09 0.10 0.11 0.12 0.14 0.24 0.43 0.48 0.52 0.61 0.72 0.65 0.63 0.63 0.59 0.50 0.55 0.57 0.54 0.46 0.50 0.60 0.70 0.86 0.99 1.05 1.06 1.13 1.24 1.30 1.37 1.46 1.40 1.48 1.62 1.63 1.68 1.70 1.75 1.87 1.81 1.84 1.90 1.80 1.77 1.86 1.92 1.95